Regional Weather Roundup
Issued by NWS

Home | Current Version | Previous Version | Graphics & Text | Print | Product List | Glossary On
Versions: 1 2 3 4 5 6 7 8 9 10 11 12 13 14 15 16 17 18 19 20 21 22 23 24 25 26 27 28 29 30 31 32 33 34 35 36 37 38 39 40 41 42 43 44 45 46 47 48 49 50
000
ASUS43 KLOT 261009
RWRIL

ILLINOIS REGIONAL WEATHER ROUNDUP
NATIONAL WEATHER SERVICE CHICAGO/ROMEOVILLE IL
500 AM CDT THU MAY 26 2016

NOTE: "FAIR" INDICATES FEW OR NO CLOUDS BELOW 12,000 FEET WITH NO
SIGNIFICANT WEATHER AND/OR OBSTRUCTIONS TO VISIBILITY.

* THESE STATIONS ARE NOT UNDER NWS QUALITY CONTROL. THEY ALSO MAY NOT
  REPORT WEATHER SUCH AS PRECIPITATION OR FOG.

ILZ001-002-007-009-015-016-024-261100-
NORTHWEST ILLINOIS

CITY           SKY/WX    TMP DP  RH WIND       PRES   REMARKS
MOLINE         CLOUDY    73  63  70 SW12      29.87R
STERLING*      CLOUDY    70  65  84 VRB5      29.88
SAVANNA*       MOCLDY    68  64  88 S7        29.87R
$$

ILZ003-004-008-010-011-017-018-261100-
NORTH CENTRAL ILLINOIS

CITY           SKY/WX    TMP DP  RH WIND       PRES   REMARKS
ROCKFORD       CLOUDY    65  63  93 S7        29.90R
FREEPORT*      CLOUDY    66  63  88 S10       29.88R
ROCHELLE*      CLOUDY    64  63  95 S6        29.89R
DE KALB*       CLEAR     64  64  97 S8        29.90R FOG
$$

ILZ005-006-012>014-019>023-261100-
NORTHEAST ILLINOIS

CITY           SKY/WX    TMP DP  RH WIND       PRES   REMARKS
CHICAGO-OHARE  PTCLDY    67  65  93 S9        29.87F
CHICAGO-MIDWAY PTCLDY    69  64  84 S7        29.88F
AURORA         CLEAR     67  64  90 S8        29.90R FOG
LANSING*       CLEAR     65  63  93 S6        29.91F
JOLIET*        CLEAR     69  67  92 S5        29.90S
WAUKEGAN       CLEAR     64  63  96 SW7       29.86F FOG
DUPAGE AIRPORT CLEAR     66  63  90 S7        29.88F
KANKAKEE*      CLEAR    N/A N/A N/A S10       29.93S
WHEELING       CLEAR     65  63  93 S6        29.88F
MORRIS*        CLEAR     69  65  88 S9        29.89S
ROMEOVILLE*    CLEAR     66  63  89 S10       29.89F
NORTHERLY ISL    N/A     68  64  87 S10         N/A
NORTHERLY ISL    N/A     68  64  87 S10         N/A
$$

LMZ740>746-261100-
SOUTHERN LAKE MICHIGAN

STATION/POSITION SKY/WX   TEMP    WIND        PRES    VSBY  WAVE
                          AIR SEA DIR/SP/G                  HT/PER
                          (F)     (DEG/KT/KT) (MB)    (MI)  (FT/S)
SOUTHERN BUOY              54 49  160/ 12/ 14 1011.6          1/ 3
WILMETTE HARBOR            59 55  180/  8/ 10   N/A           2/ 3
HARRISON CRIB              69     190/ 16/ 16   N/A
BURNHAM HARBOR             68     170/  8/ 12   N/A
CALUMET HARBOR             68     170/  5/  9 1012.4F
BURNS HARBOR               68     190/  9/ 14 1013.9F
MICHIGAN CITY              68     150/ 11/ 16   N/A
MICHIGAN CITY 6N           65 58  190/ 12/ 14   N/A           1
ST. JOSEPH                 64 60  150/ 10/ 12   N/A           1
$$

ILZ025>027-034>036-040-047-049-050-058-095>099-261100-
WEST-CENTRAL ILLINOIS

CITY           SKY/WX    TMP DP  RH WIND       PRES   REMARKS
QUINCY         TSTM      70  67  90 W10       29.90R
GALESBURG*     CLOUDY    69  64  83 S8        29.90R
MACOMB*        TSTM      68  63  84 W32G44    29.96R
JACKSONVILLE*  PTCLDY    69  65  88 S6        29.90S
PITTSFIELD*    MOCLDY    71  68  92 S6        29.90S
$$

ILZ028>032-037-038-041>044-048-051>054-059>061-261100-
CENTRAL ILLINOIS

CITY           SKY/WX    TMP DP  RH WIND       PRES   REMARKS
PONTIAC        CLEAR     69  67  94 S13       29.93R
BLOOMINGTON    PTCLDY    67  67 100 S12       29.94S
DECATUR        CLOUDY    69  66  90 S8        29.95S
PEORIA         CLOUDY    69  65  86 S8        29.89F
LACON*         CLOUDY    69  64  86 S5        29.89S
LINCOLN*       CLOUDY    70  67  92 S6        29.92S
SPRINGFIELD    CLOUDY    71  67  87 S8        29.92F
TAYLORVILLE    CLOUDY    69  67  93 S8        29.94R
$$

ILZ033-039-045-046-055>057-062-063-261100-
EAST-CENTRAL ILLINOIS

CITY           SKY/WX    TMP DP  RH WIND       PRES   REMARKS
CHAMPAIGN      PTCLDY    67  65  93 S8        29.96F FOG
RANTOUL*       CLOUDY    70  68  92 S9        29.95F
MATTOON        MOCLDY    67  64  90 S9        29.96F
PARIS*         CLOUDY    66  65  96 SE3       29.99F
$$

ILZ079-100>102-261100-
SOUTHWEST ILLINOIS

CITY           SKY/WX    TMP DP  RH WIND       PRES   REMARKS
ALTON          MOCLDY    67  65  94 SE6       29.93S
BELLEVILLE     CLEAR     67  67 100 E3        29.93F
CAHOKIA*       CLEAR     69  66  90 S8        29.92F
SPARTA*        PTCLDY    67  65  93 S8        29.97F
$$

ILZ064>066-069>071-074>076-080>082-084>086-088>090-092>094-261100-
SOUTH-CENTRAL ILLINOIS

CITY           SKY/WX    TMP DP  RH WIND       PRES   REMARKS
CARBONDALE     MOCLDY    68  62  81 S12       29.99F
CAIRO*         PTCLDY    65  63  93 CALM      30.02S
EFFINGHAM*     PTCLDY    66  66 100 SE5       29.99F
MARION         PTCLDY    68  64  88 S12       30.00F
MT. VERNON     PTCLDY    66  61  82 S7        29.99F
CENTRALIA*     PTCLDY    69  66  93 S10       29.97F
SALEM*         MOCLDY    69  65  88 S9        29.97F
METROPOLIS*    PTCLDY    67  64  92 CALM      30.03F
$$

ILZ067-068-072-073-078-083-087-091-261100-
SOUTHEAST ILLINOIS

CITY           SKY/WX    TMP DP  RH WIND       PRES   REMARKS
LAWRENCEVILLE  MOCLDY    67  65  93 S6        30.01F
FLORA*         MOCLDY    69  65  87 S9        29.98F
FAIRFIELD*     CLOUDY    67  64  87 S7        29.99S
HARRISBURG*    CLOUDY    68  63  84 SW5       30.02S
ROBINSON*      MOCLDY    65  64  96 S5        30.01F
CARMI*         PTCLDY    64  63  97 SE6       30.01S
$$

ABBREVIATIONS USED IN REMARKS
   TC - TEMPERATURE IN CELSIUS
  WCI - WIND CHILL INDEX
   HX - HEAT INDEX
  VSB - VISIBILITY
$$




USA.gov is the U.S. government's official web portal to all federal, state and local government web resources and services.